Location: Caltech
(34.1382°N, 118.1253°W)
Time: 04:41:38
(UTC-08:00)

SEDSat Delta rocket - Visible Passes

Search period start: 26 November 2014 00:00
Search period end: 06 December 2014 00:00
Orbit: 534 x 1009 km, 31.4° (Epoch: 25 November)

Date Brightness Start Highest point End Pass type
(mag) Time Alt. Az. Time Alt. Az. Time Alt. Az.
26 Nov 4.9 04:43:35 16° SSW 04:45:38 23° SSE 04:48:53 10° ESE visible
27 Nov 5.1 04:07:05 20° SSE 04:07:05 20° SSE 04:09:45 10° ESE visible
27 Nov 3.6 05:48:15 10° WSW 05:52:22 47° S 05:56:16 10° E visible
28 Nov 6.1 03:30:29 11° ESE 03:30:29 11° ESE 03:30:36 10° ESE visible
28 Nov 3.7 05:10:43 21° SW 05:13:18 45° SSE 05:17:14 10° E visible
29 Nov 3.8 04:34:00 42° S 04:34:13 42° SSE 04:38:13 10° E visible
30 Nov 5.1 03:57:13 24° ESE 03:57:13 24° ESE 03:59:12 10° E visible
30 Nov 3.2 05:37:27 15° WSW 05:41:05 61° S 05:45:08 10° E visible
01 Dec 3.2 05:00:35 40° WSW 05:01:59 61° S 05:06:09 10° E visible
02 Dec 3.8 04:23:41 51° SE 04:23:41 51° SE 04:27:10 10° E visible
02 Dec 3.5 06:04:29 10° W 06:08:52 51° S 06:12:52 10° ESE visible
03 Dec 5.5 03:46:44 20° E 03:46:44 20° E 03:48:11 10° E visible
03 Dec 3.4 05:26:57 22° W 05:29:46 55° S 05:33:54 10° ESE visible
04 Dec 3.3 04:49:59 54° SW 04:50:38 59° S 04:54:57 10° ESE visible
05 Dec 4.3 04:13:01 40° ESE 04:13:01 40° ESE 04:15:59 10° ESE visible
05 Dec 4.2 05:53:14 11° W 05:57:23 33° SSW 06:01:13 10° SE visible
